Flag for U.S.A. Weather past 2 weeks in Ocala, Florida, U.S.A.

Now
91 °F

Sunny.


Feels Like: 100 °F
Forecast: 74 / 94 °F
Wind: 6 mph from Northwest

Location: Ocala Municipal

Current Time: Aug 22, 2014 at 2:20:11 PM

Latest Report: Aug 22, 2014 at 12:50 PM


Visibility: 10 mi

Pressure: 30.07 "Hg

Humidity: 56%

Dew point: 73 °F

Location of OcalaLocation

Historic Weather in Ocala — Graph

°F

Ocala temperature yesterday

Maximum temperature yesterday: 95 °F (at 3:50 PM)
Minimum temperature yesterday: 73 °F (at 4:35 AM)
Average temperature yesterday: 79 °F

Past Weeks' High & Low Weather Summary

 TemperatureHumidityPressure
High95 °F (Aug 21, 3:50 PM)100% (Aug 13, 6:50 AM)30.16 "Hg (Aug 13, 6:50 AM)
Low70 °F (Aug 16, 3:35 AM)44% (Aug 19, 4:50 PM)29.95 "Hg (Aug 12, 6:50 PM)
Average78 °F85%30.03 "Hg
* Reported Aug 7 12:50 PM — Aug 22 12:50 PM, Ocala, Weather by CustomWeather, © 2014

Note: Actual official high and low records may vary slightly from our data, if they occured in-between our weather recording intervals... More about our weather records

Advertising

Ocala weather history for previous 24 hours

 ConditionsComfort  
Time TempWeatherWind HumidityBarometerVisibility
12:50 PM
Aug 22
91 °FSunny.6 mph56%30.07 "Hg10 mi
11:50 AM90 °FSunny.No wind59%30.09 "Hg10 mi
10:50 AM88 °FSunny.5 mph62%30.09 "Hg10 mi
9:50 AM84 °FSunny.5 mph70%30.10 "Hg10 mi
8:50 AM79 °FSunny.No wind84%30.09 "Hg10 mi
7:50 AM73 °FClear.No wind94%30.08 "Hg10 mi
6:50 AM72 °FFog.3 mph94%30.08 "Hg5 mi
6:35 AM72 °FClear.No wind94%30.08 "Hg7 mi
6:15 AM72 °FClear.No wind94%30.07 "Hg8 mi
5:55 AM72 °FClear.No wind94%30.07 "Hg9 mi
5:35 AM72 °FClear.No wind94%30.07 "Hg10 mi
5:15 AM72 °FClear.No wind94%30.07 "Hg10 mi
4:55 AM72 °FClear.No wind94%30.07 "Hg10 mi
4:35 AM73 °FClear.3 mph89%30.07 "Hg10 mi
4:15 AM73 °FClear.No wind94%30.06 "Hg10 mi
3:55 AM72 °FClear.No wind100%30.07 "Hg10 mi
3:35 AM72 °FClear.No wind100%30.07 "Hg9 mi
3:15 AM72 °FClear.No wind100%30.07 "Hg10 mi
2:55 AM73 °FClear.No wind94%30.08 "Hg10 mi
2:35 AM73 °FClear.3 mph94%30.08 "Hg10 mi
1:55 AM72 °FClear.No wind94%30.09 "Hg10 mi
1:35 AM73 °FClear.No wind94%30.09 "Hg10 mi
1:15 AM73 °FClear.No wind94%30.09 "Hg10 mi
12:55 AM73 °FClear.5 mph94%30.09 "Hg10 mi
12:35 AM73 °FClear.No wind94%30.09 "Hg10 mi
12:15 AM73 °FClear.No wind94%30.10 "Hg10 mi
11:55 PM
Aug 21
73 °FClear.No wind94%30.11 "Hg10 mi
11:35 PM73 °FClear.No wind94%30.12 "Hg10 mi
11:15 PM73 °FClear.No wind94%30.13 "Hg10 mi
10:55 PM73 °FClear.No wind94%30.13 "Hg10 mi
10:35 PM75 °FClear.No wind89%30.13 "Hg10 mi
10:15 PM75 °FPassing clouds.5 mph89%30.13 "Hg7 mi
9:55 PM75 °FThunderstorms. Overcast.6 mph89%30.12 "Hg10 mi
9:35 PM75 °FThunderstorms. Passing clouds.No wind89%30.14 "Hg8 mi
9:15 PM77 °FThunderstorms. Passing clouds.5 mph83%30.12 "Hg10 mi
8:55 PM75 °FSunny.5 mph94%30.11 "Hg10 mi
8:35 PM75 °FSunny.6 mph89%30.11 "Hg10 mi
8:15 PM75 °FPassing clouds.6 mph89%30.12 "Hg10 mi
7:55 PM75 °FThunderstorms. Scattered clouds.6 mph89%30.12 "Hg10 mi
6:50 PM88 °FThunderstorms. Scattered clouds.9 mph59%30.08 "Hg7 mi
5:50 PM93 °FScattered clouds.8 mph49%30.04 "Hg10 mi
4:50 PM95 °FScattered clouds.No wind44%30.03 "Hg10 mi
3:50 PM95 °FPassing clouds.No wind44%30.06 "Hg10 mi
2:50 PM93 °FPassing clouds.No wind49%30.08 "Hg10 mi
Weather by CustomWeather, © 2014

See weather overviewHow to use our weather pages